owner,sensor,date,latitude,longitude,vertical_datum,wind_speed,wind_to_direction,wind_speed_of_gust,qcFlag 
DISL,ioos:station:DISL:DISL:1,2011-03-01T00:00:00Z,30.2513,-88.0778,9.68,2.77,214.8,-9999.0,'1111122,1111122,1111122' 
DISL,ioos:station:DISL:DISL:1,2011-03-01T00:30:00Z,30.2513,-88.0778,9.68,2.57,227.1,-9999.0,'1111122,1111122,1111122' 
DISL,ioos:station:DISL:DISL:1,2011-03-01T01:00:00Z,30.2513,-88.0778,9.68,3.07,228.0,-9999.0,'1111122,1111122,1111122' 
DISL,ioos:station:DISL:DISL:1,2011-03-01T01:30:00Z,30.2513,-88.0778,9.68,3.22,225.9,-9999.0,'1111122,1111122,1111122' 
DISL,ioos:station:DISL:DISL:1,2011-03-01T02:00:00Z,30.2513,-88.0778,9.68,4.03,234.6,-9999.0,'1111122,1111122,1111122' 
DISL,ioos:station:DISL:DISL:1,2011-03-01T02:30:00Z,30.2513,-88.0778,9.68,4.26,232.8,-9999.0,'1111122,1111122,1111122' 
DISL,ioos:station:DISL:DISL:1,2011-03-01T03:00:00Z,30.2513,-88.0778,9.68,7.38,296.8,-9999.0,'1111122,1111122,1111122' 
DISL,ioos:station:DISL:DISL:1,2011-03-01T03:30:00Z,30.2513,-88.0778,9.68,4.62,3.077,-9999.0,'1111122,1111122,1111122' 
DISL,ioos:station:DISL:DISL:1,2011-03-01T04:00:00Z,30.2513,-88.0778,9.68,5.59,352.2,-9999.0,'1111122,1111122,1111122' 
DISL,ioos:station:DISL:DISL:1,2011-03-01T04:30:00Z,30.2513,-88.0778,9.68,6.02,355.3,-9999.0,'1111122,1111122,1111122' 
DISL,ioos:station:DISL:DISL:1,2011-03-01T05:00:00Z,30.2513,-88.0778,9.68,5.87,3.827,-9999.0,'1111122,1111122,1111122' 
DISL,ioos:station:DISL:DISL:1,2011-03-01T05:30:00Z,30.2513,-88.0778,9.68,7.61,358.3,-9999.0,'1111122,1111122,1111122' 
DISL,ioos:station:DISL:DISL:1,2011-03-01T06:00:00Z,30.2513,-88.0778,9.68,8.56,348.4,-9999.0,'1111122,1111122,1111122' 
DISL,ioos:station:DISL:DISL:1,2011-03-01T06:30:00Z,30.2513,-88.0778,9.68,9.33,353.1,-9999.0,'1111122,1111122,1111122' 
DISL,ioos:station:DISL:DISL:1,2011-03-01T07:00:00Z,30.2513,-88.0778,9.68,9.15,354.0,-9999.0,'1111122,1111122,1111122' 
DISL,ioos:station:DISL:DISL:1,2011-03-01T07:30:00Z,30.2513,-88.0778,9.68,9.74,348.9,-9999.0,'1111122,1111122,1111122' 
DISL,ioos:station:DISL:DISL:1,2011-03-01T08:00:00Z,30.2513,-88.0778,9.68,9.89,350.2,-9999.0,'1111122,1111122,1111122' 
DISL,ioos:station:DISL:DISL:1,2011-03-01T08:30:00Z,30.2513,-88.0778,9.68,10.71,351.1,-9999.0,'1111122,1111122,1111122' 
DISL,ioos:station:DISL:DISL:1,2011-03-01T09:00:00Z,30.2513,-88.0778,9.68,9.96,354.3,-9999.0,'1111122,1111122,1111122' 
DISL,ioos:station:DISL:DISL:1,2011-03-01T09:30:00Z,30.2513,-88.0778,9.68,9.76,0.751,-9999.0,'1111122,1111122,1111122' 
DISL,ioos:station:DISL:DISL:1,2011-03-01T10:00:00Z,30.2513,-88.0778,9.68,10.95,5.217,-9999.0,'1111122,1111122,1111122' 
DISL,ioos:station:DISL:DISL:1,2011-03-01T10:30:00Z,30.2513,-88.0778,9.68,10.26,1.443,-9999.0,'1111122,1111122,1111122' 
DISL,ioos:station:DISL:DISL:1,2011-03-01T11:00:00Z,30.2513,-88.0778,9.68,9.27,1.386,-9999.0,'1111122,1111122,1111122' 
DISL,ioos:station:DISL:DISL:1,2011-03-01T11:30:00Z,30.2513,-88.0778,9.68,8.91,2.724,-9999.0,'1111122,1111122,1111122' 
DISL,ioos:station:DISL:DISL:1,2011-03-01T12:00:00Z,30.2513,-88.0778,9.68,9.46,8.02,-9999.0,'1111122,1111122,1111122' 
DISL,ioos:station:DISL:DISL:1,2011-03-01T12:30:00Z,30.2513,-88.0778,9.68,8.98,11.58,-9999.0,'1111122,1111122,1111122' 
DISL,ioos:station:DISL:DISL:1,2011-03-01T13:00:00Z,30.2513,-88.0778,9.68,8.31,17.74,-9999.0,'1111122,1111122,1111122' 
DISL,ioos:station:DISL:DISL:1,2011-03-01T13:30:00Z,30.2513,-88.0778,9.68,9.24,17.69,-9999.0,'1111122,1111122,1111122' 
DISL,ioos:station:DISL:DISL:1,2011-03-01T14:00:00Z,30.2513,-88.0778,9.68,10.3,13.66,-9999.0,'1111122,1111122,1111122' 
DISL,ioos:station:DISL:DISL:1,2011-03-01T14:30:00Z,30.2513,-88.0778,9.68,10.04,6.273,-9999.0,'1111122,1111122,1111122' 
DISL,ioos:station:DISL:DISL:1,2011-03-01T15:00:00Z,30.2513,-88.0778,9.68,9.31,7.75,-9999.0,'1111122,1111122,1111122' 
DISL,ioos:station:DISL:DISL:1,2011-03-01T15:30:00Z,30.2513,-88.0778,9.68,9.47,13.21,-9999.0,'1111122,1111122,1111122' 
DISL,ioos:station:DISL:DISL:1,2011-03-01T16:00:00Z,30.2513,-88.0778,9.68,8.15,12.95,-9999.0,'1111122,1111122,1111122' 
DISL,ioos:station:DISL:DISL:1,2011-03-01T16:30:00Z,30.2513,-88.0778,9.68,8.68,4.691,-9999.0,'1111122,1111122,1111122' 
DISL,ioos:station:DISL:DISL:1,2011-03-01T17:00:00Z,30.2513,-88.0778,9.68,7.89,2.582,-9999.0,'1111122,1111122,1111122' 
DISL,ioos:station:DISL:DISL:1,2011-03-01T17:30:00Z,30.2513,-88.0778,9.68,7.38,356.7,-9999.0,'1111122,1111122,1111122' 
DISL,ioos:station:DISL:DISL:1,2011-03-01T18:00:00Z,30.2513,-88.0778,9.68,7.79,359.7,-9999.0,'1111122,1111122,1111122' 
DISL,ioos:station:DISL:DISL:1,2011-03-01T18:30:00Z,30.2513,-88.0778,9.68,7.54,358.3,-9999.0,'1111122,1111122,1111122' 
DISL,ioos:station:DISL:DISL:1,2011-03-01T19:00:00Z,30.2513,-88.0778,9.68,7.85,2.789,-9999.0,'1111122,1111122,1111122' 
DISL,ioos:station:DISL:DISL:1,2011-03-01T19:30:00Z,30.2513,-88.0778,9.68,7.85,356.9,-9999.0,'1111122,1111122,1111122' 
DISL,ioos:station:DISL:DISL:1,2011-03-01T20:00:00Z,30.2513,-88.0778,9.68,7.02,354.4,-9999.0,'1111122,1111122,1111122' 
DISL,ioos:station:DISL:DISL:1,2011-03-01T20:30:00Z,30.2513,-88.0778,9.68,6.72,355.8,-9999.0,'1111122,1111122,1111122' 
DISL,ioos:station:DISL:DISL:1,2011-03-01T21:00:00Z,30.2513,-88.0778,9.68,6.88,350.6,-9999.0,'1111122,1111122,1111122' 
DISL,ioos:station:DISL:DISL:1,2011-03-01T21:30:00Z,30.2513,-88.0778,9.68,6.8,346.7,-9999.0,'1111122,1111122,1111122' 
DISL,ioos:station:DISL:DISL:1,2011-03-01T22:00:00Z,30.2513,-88.0778,9.68,6.34,349.8,-9999.0,'1111122,1111122,1111122' 
DISL,ioos:station:DISL:DISL:1,2011-03-01T22:30:00Z,30.2513,-88.0778,9.68,5.66,350.6,-9999.0,'1111122,1111122,1111122' 
DISL,ioos:station:DISL:DISL:1,2011-03-01T23:00:00Z,30.2513,-88.0778,9.68,5.12,348.9,-9999.0,'1111122,1111122,1111122' 
DISL,ioos:station:DISL:DISL:1,2011-03-01T23:30:00Z,30.2513,-88.0778,9.68,4.86,347.8,-9999.0,'1111122,1111122,1111122' 
DISL,ioos:station:DISL:DISL:1,2011-03-02T00:00:00Z,30.2513,-88.0778,9.68,4.31,359.1,-9999.0,'1111122,1111122,1111122' 
DISL,ioos:station:DISL:DISL:1,2011-03-02T00:30:00Z,30.2513,-88.0778,9.68,4.22,14.26,-9999.0,'1111122,1111122,1111122' 
DISL,ioos:station:DISL:DISL:1,2011-03-02T01:00:00Z,30.2513,-88.0778,9.68,3.29,56.62,-9999.0,'1111122,1111122,1111122' 
DISL,ioos:station:DISL:DISL:1,2011-03-02T01:30:00Z,30.2513,-88.0778,9.68,1.37,55.29,-9999.0,'1111122,1111122,1111122' 
DISL,ioos:station:DISL:DISL:1,2011-03-02T02:00:00Z,30.2513,-88.0778,9.68,2.68,50.22,-9999.0,'1111122,1111122,1111122' 
DISL,ioos:station:DISL:DISL:1,2011-03-02T02:30:00Z,30.2513,-88.0778,9.68,3.49,52.07,-9999.0,'1111122,1111122,1111122' 
DISL,ioos:station:DISL:DISL:1,2011-03-02T03:00:00Z,30.2513,-88.0778,9.68,6.03,26.96,-9999.0,'1111122,1111122,1111122' 
DISL,ioos:station:DISL:DISL:1,2011-03-02T03:30:00Z,30.2513,-88.0778,9.68,5.94,32.21,-9999.0,'1111122,1111122,1111122' 
DISL,ioos:station:DISL:DISL:1,2011-03-02T04:00:00Z,30.2513,-88.0778,9.68,7.18,26.87,-9999.0,'1111122,1111122,1111122' 
DISL,ioos:station:DISL:DISL:1,2011-03-02T04:30:00Z,30.2513,-88.0778,9.68,7.15,30.41,-9999.0,'1111122,1111122,1111122' 
DISL,ioos:station:DISL:DISL:1,2011-03-02T05:00:00Z,30.2513,-88.0778,9.68,6.78,41.54,-9999.0,'1111122,1111122,1111122' 
DISL,ioos:station:DISL:DISL:1,2011-03-02T05:30:00Z,30.2513,-88.0778,9.68,6.7,47.22,-9999.0,'1111122,1111122,1111122' 
DISL,ioos:station:DISL:DISL:1,2011-03-02T06:00:00Z,30.2513,-88.0778,9.68,5.98,48.07,-9999.0,'1111122,1111122,1111122' 
DISL,ioos:station:DISL:DISL:1,2011-03-02T06:30:00Z,30.2513,-88.0778,9.68,6.28,55.25,-9999.0,'1111122,1111122,1111122' 
DISL,ioos:station:DISL:DISL:1,2011-03-02T07:00:00Z,30.2513,-88.0778,9.68,6.36,56.79,-9999.0,'1111122,1111122,1111122' 
DISL,ioos:station:DISL:DISL:1,2011-03-02T07:30:00Z,30.2513,-88.0778,9.68,7.31,53.72,-9999.0,'1111122,1111122,1111122' 
DISL,ioos:station:DISL:DISL:1,2011-03-02T08:00:00Z,30.2513,-88.0778,9.68,7.63,60.91,-9999.0,'1111122,1111122,1111122' 
DISL,ioos:station:DISL:DISL:1,2011-03-02T08:30:00Z,30.2513,-88.0778,9.68,6.45,60.23,-9999.0,'1111122,1111122,1111122' 
DISL,ioos:station:DISL:DISL:1,2011-03-02T09:00:00Z,30.2513,-88.0778,9.68,5.97,59.22,-9999.0,'1111122,1111122,1111122' 
DISL,ioos:station:DISL:DISL:1,2011-03-02T09:30:00Z,30.2513,-88.0778,9.68,6.7,63.17,-9999.0,'1111122,1111122,1111122' 
DISL,ioos:station:DISL:DISL:1,2011-03-02T10:00:00Z,30.2513,-88.0778,9.68,6.5,69.22,-9999.0,'1111122,1111122,1111122' 
DISL,ioos:station:DISL:DISL:1,2011-03-02T10:30:00Z,30.2513,-88.0778,9.68,6.5,70.9,-9999.0,'1111122,1111122,1111122' 
DISL,ioos:station:DISL:DISL:1,2011-03-02T11:00:00Z,30.2513,-88.0778,9.68,6.91,72.6,-9999.0,'1111122,1111122,1111122' 
DISL,ioos:station:DISL:DISL:1,2011-03-02T11:30:00Z,30.2513,-88.0778,9.68,6.44,75.9,-9999.0,'1111122,1111122,1111122' 
DISL,ioos:station:DISL:DISL:1,2011-03-02T12:00:00Z,30.2513,-88.0778,9.68,6.66,70.0,-9999.0,'1111122,1111122,1111122' 
DISL,ioos:station:DISL:DISL:1,2011-03-02T12:30:00Z,30.2513,-88.0778,9.68,6.22,77.8,-9999.0,'1111122,1111122,1111122' 
DISL,ioos:station:DISL:DISL:1,2011-03-02T13:00:00Z,30.2513,-88.0778,9.68,6.19,74.5,-9999.0,'1111122,1111122,1111122' 
DISL,ioos:station:DISL:DISL:1,2011-03-02T13:30:00Z,30.2513,-88.0778,9.68,5.72,82.9,-9999.0,'1111122,1111122,1111122' 
DISL,ioos:station:DISL:DISL:1,2011-03-02T14:00:00Z,30.2513,-88.0778,9.68,6.21,82.3,-9999.0,'1111122,1111122,1111122' 
DISL,ioos:station:DISL:DISL:1,2011-03-02T14:30:00Z,30.2513,-88.0778,9.68,5.57,82.0,-9999.0,'1111122,1111122,1111122' 
DISL,ioos:station:DISL:DISL:1,2011-03-02T15:00:00Z,30.2513,-88.0778,9.68,7.54,94.1,-9999.0,'1111122,1111122,1111122' 
DISL,ioos:station:DISL:DISL:1,2011-03-02T15:30:00Z,30.2513,-88.0778,9.68,8.08,97.0,-9999.0,'1111122,1111122,1111122' 
DISL,ioos:station:DISL:DISL:1,2011-03-02T16:00:00Z,30.2513,-88.0778,9.68,8.3,98.6,-9999.0,'1111122,1111122,1111122' 
DISL,ioos:station:DISL:DISL:1,2011-03-02T16:30:00Z,30.2513,-88.0778,9.68,8.87,101.6,-9999.0,'1111122,1111122,1111122' 
DISL,ioos:station:DISL:DISL:1,2011-03-02T17:00:00Z,30.2513,-88.0778,9.68,8.11,96.1,-9999.0,'1111122,1111122,1111122' 
DISL,ioos:station:DISL:DISL:1,2011-03-02T17:30:00Z,30.2513,-88.0778,9.68,7.43,93.4,-9999.0,'1111122,1111122,1111122' 
DISL,ioos:station:DISL:DISL:1,2011-03-02T18:00:00Z,30.2513,-88.0778,9.68,7.56,100.1,-9999.0,'1111122,1111122,1111122' 
DISL,ioos:station:DISL:DISL:1,2011-03-02T18:30:00Z,30.2513,-88.0778,9.68,7.73,94.2,-9999.0,'1111122,1111122,1111122' 
DISL,ioos:station:DISL:DISL:1,2011-03-02T19:00:00Z,30.2513,-88.0778,9.68,7.01,96.6,-9999.0,'1111122,1111122,1111122' 
DISL,ioos:station:DISL:DISL:1,2011-03-02T19:30:00Z,30.2513,-88.0778,9.68,6.39,104.0,-9999.0,'1111122,1111122,1111122' 
DISL,ioos:station:DISL:DISL:1,2011-03-02T20:00:00Z,30.2513,-88.0778,9.68,6.58,97.8,-9999.0,'1111122,1111122,1111122' 
DISL,ioos:station:DISL:DISL:1,2011-03-02T20:30:00Z,30.2513,-88.0778,9.68,6.33,105.5,-9999.0,'1111122,1111122,1111122' 
DISL,ioos:station:DISL:DISL:1,2011-03-02T21:00:00Z,30.2513,-88.0778,9.68,5.24,113.9,-9999.0,'1111122,1111122,1111122' 
DISL,ioos:station:DISL:DISL:1,2011-03-02T21:30:00Z,30.2513,-88.0778,9.68,5.77,110.9,-9999.0,'1111122,1111122,1111122' 
DISL,ioos:station:DISL:DISL:1,2011-03-02T22:00:00Z,30.2513,-88.0778,9.68,4.93,106.9,-9999.0,'1111122,1111122,1111122' 
DISL,ioos:station:DISL:DISL:1,2011-03-02T22:30:00Z,30.2513,-88.0778,9.68,3.98,115.1,-9999.0,'1111122,1111122,1111122' 
DISL,ioos:station:DISL:DISL:1,2011-03-02T23:00:00Z,30.2513,-88.0778,9.68,3.7,113.0,-9999.0,'1111122,1111122,1111122' 
DISL,ioos:station:DISL:DISL:1,2011-03-02T23:30:00Z,30.2513,-88.0778,9.68,3.72,112.3,-9999.0,'1111122,1111122,1111122' 
DISL,ioos:station:DISL:DISL:1,2011-03-03T00:00:00Z,30.2513,-88.0778,9.68,3.64,121.6,-9999.0,'1111122,1111122,1111122' 
DISL,ioos:station:DISL:DISL:1,2011-03-03T00:30:00Z,30.2513,-88.0778,9.68,3.14,117.6,-9999.0,'1111122,1111122,1111122' 
DISL,ioos:station:DISL:DISL:1,2011-03-03T01:00:00Z,30.2513,-88.0778,9.68,2.65,115.2,-9999.0,'1111122,1111122,1111122' 
DISL,ioos:station:DISL:DISL:1,2011-03-03T01:30:00Z,30.2513,-88.0778,9.68,2.81,111.8,-9999.0,'1111122,1111122,1111122' 
DISL,ioos:station:DISL:DISL:1,2011-03-03T02:00:00Z,30.2513,-88.0778,9.68,3.33,100.0,-9999.0,'1111122,1111122,1111122' 
DISL,ioos:station:DISL:DISL:1,2011-03-03T02:30:00Z,30.2513,-88.0778,9.68,3.1,107.6,-9999.0,'1111122,1111122,1111122' 
DISL,ioos:station:DISL:DISL:1,2011-03-03T03:00:00Z,30.2513,-88.0778,9.68,1.86,111.7,-9999.0,'1111122,1111122,1111122' 
DISL,ioos:station:DISL:DISL:1,2011-03-03T03:30:00Z,30.2513,-88.0778,9.68,2.24,89.4,-9999.0,'1111122,1111122,1111122' 
DISL,ioos:station:DISL:DISL:1,2011-03-03T04:00:00Z,30.2513,-88.0778,9.68,2.62,67.28,-9999.0,'1111122,1111122,1111122' 
DISL,ioos:station:DISL:DISL:1,2011-03-03T04:30:00Z,30.2513,-88.0778,9.68,3.19,71.9,-9999.0,'1111122,1111122,1111122' 
DISL,ioos:station:DISL:DISL:1,2011-03-03T05:00:00Z,30.2513,-88.0778,9.68,3.58,69.61,-9999.0,'1111122,1111122,1111122' 
DISL,ioos:station:DISL:DISL:1,2011-03-03T05:30:00Z,30.2513,-88.0778,9.68,3.36,68.18,-9999.0,'1111122,1111122,1111122' 
DISL,ioos:station:DISL:DISL:1,2011-03-03T06:00:00Z,30.2513,-88.0778,9.68,3.11,53.06,-9999.0,'1111122,1111122,1111122' 
DISL,ioos:station:DISL:DISL:1,2011-03-03T06:30:00Z,30.2513,-88.0778,9.68,2.93,53.72,-9999.0,'1111122,1111122,1111122' 
DISL,ioos:station:DISL:DISL:1,2011-03-03T07:00:00Z,30.2513,-88.0778,9.68,3.47,50.58,-9999.0,'1111122,1111122,1111122' 
DISL,ioos:station:DISL:DISL:1,2011-03-03T07:30:00Z,30.2513,-88.0778,9.68,4.37,56.23,-9999.0,'1111122,1111122,1111122' 
DISL,ioos:station:DISL:DISL:1,2011-03-03T08:00:00Z,30.2513,-88.0778,9.68,5.75,47.86,-9999.0,'1111122,1111122,1111122' 
DISL,ioos:station:DISL:DISL:1,2011-03-03T08:30:00Z,30.2513,-88.0778,9.68,6.19,51.76,-9999.0,'1111122,1111122,1111122' 
DISL,ioos:station:DISL:DISL:1,2011-03-03T09:00:00Z,30.2513,-88.0778,9.68,6.28,53.67,-9999.0,'1111122,1111122,1111122' 
DISL,ioos:station:DISL:DISL:1,2011-03-03T09:30:00Z,30.2513,-88.0778,9.68,5.13,60.42,-9999.0,'1111122,1111122,1111122' 
DISL,ioos:station:DISL:DISL:1,2011-03-03T10:00:00Z,30.2513,-88.0778,9.68,5.63,73.1,-9999.0,'1111122,1111122,1111122' 
DISL,ioos:station:DISL:DISL:1,2011-03-03T10:30:00Z,30.2513,-88.0778,9.68,5.06,75.6,-9999.0,'1111122,1111122,1111122' 
DISL,ioos:station:DISL:DISL:1,2011-03-03T11:00:00Z,30.2513,-88.0778,9.68,5.26,70.9,-9999.0,'1111122,1111122,1111122' 
DISL,ioos:station:DISL:DISL:1,2011-03-03T11:30:00Z,30.2513,-88.0778,9.68,5.86,73.6,-9999.0,'1111122,1111122,1111122' 
DISL,ioos:station:DISL:DISL:1,2011-03-03T12:00:00Z,30.2513,-88.0778,9.68,6.42,79.5,-9999.0,'1111122,1111122,1111122' 
DISL,ioos:station:DISL:DISL:1,2011-03-03T12:30:00Z,30.2513,-88.0778,9.68,7.12,80.9,-9999.0,'1111122,1111122,1111122' 
DISL,ioos:station:DISL:DISL:1,2011-03-03T13:00:00Z,30.2513,-88.0778,9.68,7.98,82.5,-9999.0,'1111122,1111122,1111122' 
DISL,ioos:station:DISL:DISL:1,2011-03-03T13:30:00Z,30.2513,-88.0778,9.68,6.98,74.0,-9999.0,'1111122,1111122,1111122' 
DISL,ioos:station:DISL:DISL:1,2011-03-03T14:00:00Z,30.2513,-88.0778,9.68,6.18,76.2,-9999.0,'1111122,1111122,1111122' 
DISL,ioos:station:DISL:DISL:1,2011-03-03T14:30:00Z,30.2513,-88.0778,9.68,9.31,97.1,-9999.0,'1111122,1111122,1111122' 
DISL,ioos:station:DISL:DISL:1,2011-03-03T15:00:00Z,30.2513,-88.0778,9.68,9.96,104.4,-9999.0,'1111122,1111122,1111122' 
DISL,ioos:station:DISL:DISL:1,2011-03-03T15:30:00Z,30.2513,-88.0778,9.68,11.09,105.8,-9999.0,'1111122,1111122,1111122' 
DISL,ioos:station:DISL:DISL:1,2011-03-03T16:00:00Z,30.2513,-88.0778,9.68,10.44,106.3,-9999.0,'1111122,1111122,1111122' 
DISL,ioos:station:DISL:DISL:1,2011-03-03T16:30:00Z,30.2513,-88.0778,9.68,10.17,103.7,-9999.0,'1111122,1111122,1111122' 
DISL,ioos:station:DISL:DISL:1,2011-03-03T17:00:00Z,30.2513,-88.0778,9.68,9.74,101.8,-9999.0,'1111122,1111122,1111122' 
DISL,ioos:station:DISL:DISL:1,2011-03-03T17:30:00Z,30.2513,-88.0778,9.68,9.59,103.9,-9999.0,'1111122,1111122,1111122' 
DISL,ioos:station:DISL:DISL:1,2011-03-03T18:00:00Z,30.2513,-88.0778,9.68,10.1,106.6,-9999.0,'1111122,1111122,1111122' 
DISL,ioos:station:DISL:DISL:1,2011-03-03T18:30:00Z,30.2513,-88.0778,9.68,10.25,99.1,-9999.0,'1111122,1111122,1111122' 
DISL,ioos:station:DISL:DISL:1,2011-03-03T19:00:00Z,30.2513,-88.0778,9.68,8.39,102.2,-9999.0,'1111122,1111122,1111122' 
DISL,ioos:station:DISL:DISL:1,2011-03-03T19:30:00Z,30.2513,-88.0778,9.68,9.46,98.2,-9999.0,'1111122,1111122,1111122' 
DISL,ioos:station:DISL:DISL:1,2011-03-03T20:00:00Z,30.2513,-88.0778,9.68,9.5,95.9,-9999.0,'1111122,1111122,1111122' 
DISL,ioos:station:DISL:DISL:1,2011-03-03T20:30:00Z,30.2513,-88.0778,9.68,9.66,95.0,-9999.0,'1111122,1111122,1111122' 
DISL,ioos:station:DISL:DISL:1,2011-03-03T21:00:00Z,30.2513,-88.0778,9.68,9.21,103.9,-9999.0,'1111122,1111122,1111122' 
DISL,ioos:station:DISL:DISL:1,2011-03-03T21:30:00Z,30.2513,-88.0778,9.68,8.56,100.4,-9999.0,'1111122,1111122,1111122' 
DISL,ioos:station:DISL:DISL:1,2011-03-03T22:00:00Z,30.2513,-88.0778,9.68,9.2,97.8,-9999.0,'1111122,1111122,1111122' 
DISL,ioos:station:DISL:DISL:1,2011-03-03T22:30:00Z,30.2513,-88.0778,9.68,8.91,103.6,-9999.0,'1111122,1111122,1111122' 
DISL,ioos:station:DISL:DISL:1,2011-03-03T23:00:00Z,30.2513,-88.0778,9.68,8.83,102.8,-9999.0,'1111122,1111122,1111122' 
DISL,ioos:station:DISL:DISL:1,2011-03-03T23:30:00Z,30.2513,-88.0778,9.68,8.24,100.8,-9999.0,'1111122,1111122,1111122' 
DISL,ioos:station:DISL:DISL:1,2011-03-04T00:00:00Z,30.2513,-88.0778,9.68,7.96,102.1,-9999.0,'1111122,1111122,1111122' 
DISL,ioos:station:DISL:DISL:1,2011-03-04T00:30:00Z,30.2513,-88.0778,9.68,8.06,108.3,-9999.0,'1111122,1111122,1111122' 
DISL,ioos:station:DISL:DISL:1,2011-03-04T01:00:00Z,30.2513,-88.0778,9.68,8.03,104.0,-9999.0,'1111122,1111122,1111122' 
DISL,ioos:station:DISL:DISL:1,2011-03-04T01:30:00Z,30.2513,-88.0778,9.68,7.23,104.7,-9999.0,'1111122,1111122,1111122' 
DISL,ioos:station:DISL:DISL:1,2011-03-04T02:00:00Z,30.2513,-88.0778,9.68,7.56,101.8,-9999.0,'1111122,1111122,1111122' 
DISL,ioos:station:DISL:DISL:1,2011-03-04T02:30:00Z,30.2513,-88.0778,9.68,6.99,100.7,-9999.0,'1111122,1111122,1111122' 
DISL,ioos:station:DISL:DISL:1,2011-03-04T03:00:00Z,30.2513,-88.0778,9.68,6.42,103.3,-9999.0,'1111122,1111122,1111122' 
DISL,ioos:station:DISL:DISL:1,2011-03-04T03:30:00Z,30.2513,-88.0778,9.68,6.46,107.2,-9999.0,'1111122,1111122,1111122' 
DISL,ioos:station:DISL:DISL:1,2011-03-04T04:00:00Z,30.2513,-88.0778,9.68,6.12,113.2,-9999.0,'1111122,1111122,1111122' 
DISL,ioos:station:DISL:DISL:1,2011-03-04T04:30:00Z,30.2513,-88.0778,9.68,6.16,108.7,-9999.0,'1111122,1111122,1111122' 
DISL,ioos:station:DISL:DISL:1,2011-03-04T05:00:00Z,30.2513,-88.0778,9.68,6.24,107.7,-9999.0,'1111122,1111122,1111122' 
DISL,ioos:station:DISL:DISL:1,2011-03-04T05:30:00Z,30.2513,-88.0778,9.68,6.3,108.6,-9999.0,'1111122,1111122,1111122' 
DISL,ioos:station:DISL:DISL:1,2011-03-04T06:00:00Z,30.2513,-88.0778,9.68,6.31,107.2,-9999.0,'1111122,1111122,1111122' 
DISL,ioos:station:DISL:DISL:1,2011-03-04T06:30:00Z,30.2513,-88.0778,9.68,6.71,110.1,-9999.0,'1111122,1111122,1111122' 
DISL,ioos:station:DISL:DISL:1,2011-03-04T07:00:00Z,30.2513,-88.0778,9.68,6.74,112.9,-9999.0,'1111122,1111122,1111122' 
DISL,ioos:station:DISL:DISL:1,2011-03-04T07:30:00Z,30.2513,-88.0778,9.68,7.33,104.6,-9999.0,'1111122,1111122,1111122' 
DISL,ioos:station:DISL:DISL:1,2011-03-04T08:00:00Z,30.2513,-88.0778,9.68,7.65,96.5,-9999.0,'1111122,1111122,1111122' 
DISL,ioos:station:DISL:DISL:1,2011-03-04T08:30:00Z,30.2513,-88.0778,9.68,10.19,100.0,-9999.0,'1111122,1111122,1111122' 
DISL,ioos:station:DISL:DISL:1,2011-03-04T09:00:00Z,30.2513,-88.0778,9.68,10.63,95.9,-9999.0,'1111122,1111122,1111122' 
DISL,ioos:station:DISL:DISL:1,2011-03-04T09:30:00Z,30.2513,-88.0778,9.68,10.92,102.4,-9999.0,'1111122,1111122,1111122' 
DISL,ioos:station:DISL:DISL:1,2011-03-04T10:00:00Z,30.2513,-88.0778,9.68,10.79,105.4,-9999.0,'1111122,1111122,1111122' 
DISL,ioos:station:DISL:DISL:1,2011-03-04T10:30:00Z,30.2513,-88.0778,9.68,11.43,100.5,-9999.0,'1111122,1111122,1111122' 
DISL,ioos:station:DISL:DISL:1,2011-03-04T11:00:00Z,30.2513,-88.0778,9.68,11.14,100.4,-9999.0,'1111122,1111122,1111122' 
DISL,ioos:station:DISL:DISL:1,2011-03-04T11:30:00Z,30.2513,-88.0778,9.68,10.58,101.6,-9999.0,'1111122,1111122,1111122' 
DISL,ioos:station:DISL:DISL:1,2011-03-04T12:00:00Z,30.2513,-88.0778,9.68,11.18,101.7,-9999.0,'1111122,1111122,1111122' 
DISL,ioos:station:DISL:DISL:1,2011-03-04T12:30:00Z,30.2513,-88.0778,9.68,11.68,101.5,-9999.0,'1111122,1111122,1111122' 
DISL,ioos:station:DISL:DISL:1,2011-03-04T13:00:00Z,30.2513,-88.0778,9.68,11.57,98.4,-9999.0,'1111122,1111122,1111122' 
DISL,ioos:station:DISL:DISL:1,2011-03-04T13:30:00Z,30.2513,-88.0778,9.68,12.55,102.8,-9999.0,'1111122,1111122,1111122' 
DISL,ioos:station:DISL:DISL:1,2011-03-04T14:00:00Z,30.2513,-88.0778,9.68,12.5,102.7,-9999.0,'1111122,1111122,1111122' 
DISL,ioos:station:DISL:DISL:1,2011-03-04T14:30:00Z,30.2513,-88.0778,9.68,12.33,102.4,-9999.0,'1111122,1111122,1111122' 
DISL,ioos:station:DISL:DISL:1,2011-03-04T15:00:00Z,30.2513,-88.0778,9.68,12.26,102.9,-9999.0,'1111122,1111122,1111122' 
DISL,ioos:station:DISL:DISL:1,2011-03-04T15:30:00Z,30.2513,-88.0778,9.68,12.6,104.3,-9999.0,'1111122,1111122,1111122' 
DISL,ioos:station:DISL:DISL:1,2011-03-04T16:00:00Z,30.2513,-88.0778,9.68,12.32,100.8,-9999.0,'1111122,1111122,1111122' 
DISL,ioos:station:DISL:DISL:1,2011-03-04T16:30:00Z,30.2513,-88.0778,9.68,12.82,102.1,-9999.0,'1111122,1111122,1111122' 
DISL,ioos:station:DISL:DISL:1,2011-03-04T17:00:00Z,30.2513,-88.0778,9.68,12.06,100.0,-9999.0,'1111122,1111122,1111122' 
DISL,ioos:station:DISL:DISL:1,2011-03-04T17:30:00Z,30.2513,-88.0778,9.68,12.57,104.4,-9999.0,'1111122,1111122,1111122' 
DISL,ioos:station:DISL:DISL:1,2011-03-04T18:00:00Z,30.2513,-88.0778,9.68,11.51,103.0,-9999.0,'1111122,1111122,1111122' 
DISL,ioos:station:DISL:DISL:1,2011-03-04T18:30:00Z,30.2513,-88.0778,9.68,11.52,104.9,-9999.0,'1111122,1111122,1111122' 
DISL,ioos:station:DISL:DISL:1,2011-03-04T19:00:00Z,30.2513,-88.0778,9.68,12.15,106.3,-9999.0,'1111122,1111122,1111122' 
DISL,ioos:station:DISL:DISL:1,2011-03-04T19:30:00Z,30.2513,-88.0778,9.68,11.72,105.6,-9999.0,'1111122,1111122,1111122' 
DISL,ioos:station:DISL:DISL:1,2011-03-04T20:00:00Z,30.2513,-88.0778,9.68,11.92,104.9,-9999.0,'1111122,1111122,1111122' 
DISL,ioos:station:DISL:DISL:1,2011-03-04T20:30:00Z,30.2513,-88.0778,9.68,11.23,103.3,-9999.0,'1111122,1111122,1111122' 
DISL,ioos:station:DISL:DISL:1,2011-03-04T21:00:00Z,30.2513,-88.0778,9.68,11.62,106.9,-9999.0,'1111122,1111122,1111122' 
DISL,ioos:station:DISL:DISL:1,2011-03-04T21:30:00Z,30.2513,-88.0778,9.68,11.83,108.0,-9999.0,'1111122,1111122,1111122' 
DISL,ioos:station:DISL:DISL:1,2011-03-04T22:00:00Z,30.2513,-88.0778,9.68,11.51,106.8,-9999.0,'1111122,1111122,1111122' 
DISL,ioos:station:DISL:DISL:1,2011-03-04T22:30:00Z,30.2513,-88.0778,9.68,10.7,106.9,-9999.0,'1111122,1111122,1111122' 
DISL,ioos:station:DISL:DISL:1,2011-03-04T23:00:00Z,30.2513,-88.0778,9.68,10.62,106.3,-9999.0,'1111122,1111122,1111122' 
DISL,ioos:station:DISL:DISL:1,2011-03-04T23:30:00Z,30.2513,-88.0778,9.68,10.29,109.9,-9999.0,'1111122,1111122,1111122' 
DISL,ioos:station:DISL:DISL:1,2011-03-05T00:00:00Z,30.2513,-88.0778,9.68,10.3,103.8,-9999.0,'1111122,1111122,1111122' 
DISL,ioos:station:DISL:DISL:1,2011-03-05T00:30:00Z,30.2513,-88.0778,9.68,10.66,110.6,-9999.0,'1111122,1111122,1111122' 
DISL,ioos:station:DISL:DISL:1,2011-03-05T01:00:00Z,30.2513,-88.0778,9.68,10.29,107.5,-9999.0,'1111122,1111122,1111122' 
DISL,ioos:station:DISL:DISL:1,2011-03-05T01:30:00Z,30.2513,-88.0778,9.68,8.34,110.2,-9999.0,'1111122,1111122,1111122' 
DISL,ioos:station:DISL:DISL:1,2011-03-05T02:00:00Z,30.2513,-88.0778,9.68,8.82,110.4,-9999.0,'1111122,1111122,1111122' 
DISL,ioos:station:DISL:DISL:1,2011-03-05T02:30:00Z,30.2513,-88.0778,9.68,8.09,113.2,-9999.0,'1111122,1111122,1111122' 
DISL,ioos:station:DISL:DISL:1,2011-03-05T03:00:00Z,30.2513,-88.0778,9.68,7.94,111.4,-9999.0,'1111122,1111122,1111122' 
DISL,ioos:station:DISL:DISL:1,2011-03-05T03:30:00Z,30.2513,-88.0778,9.68,8.18,112.0,-9999.0,'1111122,1111122,1111122' 